Regional Weather Roundup
Issued by NWS Grand Forks, ND

Home | Current Version | Previous Version | Graphics & Text | Print | Product List | Glossary On
Versions: 1 2 3 4 5 6 7 8 9 10 11 12 13 14 15 16 17 18 19 20 21 22 23 24 25 26 27 28 29 30 31 32 33 34 35 36 37 38 39 40 41 42 43 44 45 46 47 48 49 50
000
ASUS43 KFGF 311810
RWRFGF
PRAIRIE TO PINES  WEATHER ROUNDUP
NATIONAL WEATHER SERVICE EASTERN NORTH DAKOTA/GRAND FORKS ND
100 PM CDT WED AUG 31 2016

 **SATELLITE DATA USED TO AUGMENT SKY COVER AT AUTOMATED STATIONS**
 *****  WEATHER ACROSS EASTERN NORTH DAKOTA  *****

CITY           SKY/WX    TMP DP  RH WIND       PRES   REMARKS
GRAND FORKS    MOSUNNY   73  52  47 NE5       30.26F
6HR MIN TEMP:  51; 6HR MAX TEMP:  74;

GRAND FRKS AFB SUNNY     72  52  49 VRB2      30.27S
GRAND FRKS NWS   N/A     72 N/A N/A NE7         N/A
DEVILS LAKE    SUNNY     73  48  41 SE10      30.27S
6HR MIN TEMP:  52; 6HR MAX TEMP:  73;

FARGO          SUNNY     77  51  40 N8        30.23F
WAHPETON ARPT  CLEAR     77  45  31 CALM      30.23S
$$

 ***** WEATHER ACROSS CENTRAL AND WESTERN NORTH DAKOTA  *****

CITY           SKY/WX    TMP DP  RH WIND       PRES   REMARKS
BISMARCK       CLOUDY    76  57  51 SE15G24   30.21F
6HR MIN TEMP:  62; 6HR MAX TEMP:  77;

MINOT          CLOUDY    77  59  53 E20       30.18S
6HR MIN TEMP:  59; 6HR MAX TEMP:  77; 6HR PCP: TRACE;

JAMESTOWN      SUNNY     78  54  43 SE10      30.23F
6HR MIN TEMP:  57; 6HR MAX TEMP:  78;

MINOT AFB      CLOUDY    78  57  49 SE20      30.16F
GARRISON         N/A     80  61  52 SE16G28   30.17F
WILLISTON      SUNNY     86  59  39 SE15G23   30.07F
6HR MIN TEMP:  65; 6HR MAX TEMP:  86;

DICKINSON      SUNNY     85  57  38 S22G29    30.11F
6HR MIN TEMP:  54; 6HR MAX TEMP:  85;

HETTINGER      SUNNY     85  58  39 SE20G26   30.17F
6HR MIN TEMP:  55; 6HR MAX TEMP:  85;

$$

 *****  OTHER AIRPORT OBSERVATIONS IN OUR AREA  *****

CITY           SKY/WX    TMP DP  RH WIND       PRES   REMARKS
WALHALLA       NOT AVBL
GRAFTON AIRPOR FAIR      70  54  56 N9        30.29S
VALLEY CITY AR FAIR      75  54  46 SE8       30.26F
CANDO          NOT AVBL
CAVALIER APRT  FAIR      68  54  60 N6        30.28S
GWINNER        FAIR      77  57  50 E5        30.24S
SHEYENNE NWR     N/A     79  55  43 E2        29.95S
ROLLA            N/A     70  48  46 E13       30.28S
 ***** THE ABOVE OBSERVATIONS ARE NON NWS ARE NOT QUALITY
       CONTROLLED AND MAY MIS-REPORT RAIN FOR SNOW...
$$

  *****  WEATHER ACROSS NORTHERN MINNESOTA  *****

CITY           SKY/WX    TMP DP  RH WIND       PRES   REMARKS
FLAG ISLAND    CLOUDY    64  52  63 CALM      30.27S HAZE
WARROAD        CLOUDY    66  57  72 NE6       30.28F
ROSEAU         SUNNY     70  54  56 N7        30.27F
HALLOCK        SUNNY     70  54  56 N6        30.26F
THF RVR FALLS  SUNNY     68  54  60 VRB6      30.27F
6HR MIN TEMP:  53; 6HR MAX TEMP:  69;

BAUDETTE       CLOUDY    66  54  65 N12       30.27S
6HR MIN TEMP:  48; 6HR MAX TEMP:  70;

WASKISH        MOSUNNY   70  55  60 NW7       30.26F
CROOKSTON      SUNNY     72  52  49 E6        30.26F
STEPHEN NDAWN    N/A     70  55  60 N8          N/A
GREENBUSH NDAW   N/A     70  54  56 N7          N/A
$$
  *****  WEATHER ACROSS CENTRAL AND WEST MINNESOTA  *****

CITY           SKY/WX    TMP DP  RH WIND       PRES   REMARKS
FOSSTON        SUNNY     70  59  68 N5        30.27S
BEMIDJI        MOSUNNY   69  54  59 N5G16     30.25F
PARK RAPIDS    SUNNY     73  48  41 N8        30.25S
6HR MIN TEMP:  50; 6HR MAX TEMP:  73;

ELBOW LAKE     FAIR      74  53  47 NE7       30.23F
WADENA         NOT AVBL
DETROIT LAKES  SUNNY     72  52  49 N5        30.27S
MOORHEAD       SUNNY     75  48  38 N8        30.24F
FERGUS FALLS   SUNNY     75  55  50 N5        30.23F
MORRIS MN      SUNNY     79  54  41 CALM      30.22F
STAPLES        SUNNY     73  48  40 N8        30.23F
$$
  *****  WEATHER ELSEWHERE ACROSS MINNESOTA  *****

CITY           SKY/WX    TMP DP  RH WIND       PRES   REMARKS
DULUTH         MOSUNNY   72  51  47 N9        30.21S
6HR MIN TEMP:  52; 6HR MAX TEMP:  73;

INTRNTL FALLS  CLOUDY    67  53  61 N7        30.25S
6HR MIN TEMP:  45; 6HR MAX TEMP:  69;

ELY            CLOUDY    64  50  59 N5        30.22S
CLOQUET        SUNNY     72  45  37 NW10      30.21S
WHEATON        SUNNY     79  57  47 N3        30.24F
BRAINERD       SUNNY     72  54  53 N7        30.23F
6HR MIN TEMP:  50; 6HR MAX TEMP:  73;

HIBBING        PTSUNNY   66  52  60 N10       30.23S
ALEXANDRIA     SUNNY     76  51  41 NW8       30.26S
6HR MIN TEMP:  56; 6HR MAX TEMP:  77;

SAINT CLOUD    SUNNY     74  55  51 N8        30.22F
6HR MIN TEMP:  52; 6HR MAX TEMP:  75;

MINNEAPOLIS    SUNNY     77  51  40 N8        30.20F
6HR MIN TEMP:  58; 6HR MAX TEMP:  77;

$$

  *****  WEATHER ACROSS SOUTH DAKOTA  *****

CITY           SKY/WX    TMP DP  RH WIND       PRES   REMARKS
SIOUX FALLS    CLOUDY    81  58  45 CALM      30.22F
6HR MIN TEMP:  56; 6HR MAX TEMP:  81;

BROOKINGS      SUNNY     76  56  49 CALM      30.24S
WATERTOWN      SUNNY     77  52  41 SW5       30.24F
6HR MIN TEMP:  56; 6HR MAX TEMP:  77;

HURON          PTSUNNY   75  64  68 S7        30.21F
6HR MIN TEMP:  63; 6HR MAX TEMP:  75; 6HR PCP: TRACE;

SISSETON         N/A     79  55  43 CALM      30.22F
ABERDEEN       CLOUDY    74  60  61 VRB3      30.23S
6HR MIN TEMP:  61; 6HR MAX TEMP:  75; 6HR PCP:  0.02;

MITCHELL       CLOUDY    80  60  50 VRB3      30.22F
PIERRE         SUNNY     79  65  62 S10       30.20F
6HR MIN TEMP:  62; 6HR MAX TEMP:  80;

MOBRIDGE       SUNNY     86  56  35 S14       30.18F
RAPID CITY     SUNNY     80  60  50 S20G25    30.22R
6HR MIN TEMP:  55; 6HR MAX TEMP:  80;

$$

  *****  SOME WEATHER IN NEARBY STATES *****

CITY           SKY/WX    TMP DP  RH WIND       PRES   REMARKS
GLASGOW MT     CLOUDY    80  56  43 SE14      29.98R
6HR MIN TEMP:  62; 6HR MAX TEMP:  80;

GREAT FALLS MT SUNNY     85  46  25 VRB3      29.96F
6HR MIN TEMP:  51; 6HR MAX TEMP:  85;

CHEYENNE WY    SUNNY     67  52  58 S8        30.34S
6HR MIN TEMP:  45; 6HR MAX TEMP:  68;

SCOTTSBLUFF NE MOSUNNY   75  60  59 SE8       30.26F
6HR MIN TEMP:  56; 6HR MAX TEMP:  75;

OMAHA NE       MOSUNNY   80  61  52 MISG      30.18F
6HR MIN TEMP:  66; 6HR MAX TEMP:  80;

DES MOINES IA  MOSUNNY   80  57  45 N12       30.15F
6HR MIN TEMP:  66; 6HR MAX TEMP:  80;

DAVENPORT IA   MOSUNNY   77  66  68 N10       30.12S
6HR MIN TEMP:  65; 6HR MAX TEMP:  78;

CHICAGO IL     PTSUNNY   76  61  59 NE16      30.08S
6HR MIN TEMP:  68; 6HR MAX TEMP:  76;

EAU CLAIRE WI  SUNNY     75  51  43 VRB6      30.17F
6HR MIN TEMP:  49; 6HR MAX TEMP:  76;

LA CROSSE WI   SUNNY     77  54  44 N8        30.16S
6HR MIN TEMP:  59; 6HR MAX TEMP:  77;

$$

  *****  SOME NATIONAL WEATHER *****

CITY           SKY/WX    TMP DP  RH WIND       PRES   REMARKS
LA GUARDIA NY  CLOUDY    87  62  43 CALM      29.92F
6HR MIN TEMP:  78; 6HR MAX TEMP:  88;

RALEIGH NC     PTSUNNY   92  66  42 SE5       29.96F HX  94
6HR MIN TEMP:  76; 6HR MAX TEMP:  92;

ATLANTA GA     MOSUNNY   89  65  44 E9        29.97F HX  91
6HR MIN TEMP:  75; 6HR MAX TEMP:  89;

NEW ORLEANS LA MOSUNNY   93  75  55 NE14      29.87F HX 104
6HR MIN TEMP:  83; 6HR MAX TEMP:  93;

OKLAHOMA CITY  PTSUNNY   92  68  45 NW8       30.06F HX  96
6HR MIN TEMP:  73; 6HR MAX TEMP:  92;

ALBUQUERQUE NM PTSUNNY   74  55  51 CALM      30.30F
6HR MIN TEMP:  61; 6HR MAX TEMP:  75;

SALT LAKE CITY MOSUNNY   93  35  13 S16G24    30.06F
6HR MIN TEMP:  75; 6HR MAX TEMP:  93;

LOS ANGELES CA CLOUDY    71  65  81 W10       29.89R FOG
6HR MIN TEMP:  68; 6HR MAX TEMP:  73;

BOISE ID       CLOUDY   C1F1C2F2C3F3C4F4C5F5C6F6C7F7C8F8C9F9CaFaCbFbCcFcCd!



USA.gov is the U.S. government's official web portal to all federal, state and local government web resources and services.